| time (UTC) | temp F | wind direction | speed knots | gust knots | rain 1hr in | rain 24hr in | rain mn in | humidity % | barometer mb |
| 20260503192536 | 53 | 95 | 3.5 | 8.7 | 0.00 | 0.00 | 0.00 | 77 | 1026.5 |
| 20260503192036 | 53 | 115 | 3.5 | 8.7 | 0.00 | 0.00 | 0.00 | 76 | 1026.4 |
| 20260503191554 | 53 | 71 | 3.5 | 8.7 | 0.00 | 0.00 | 0.00 | 76 | 1026.4 |
| 20260503191037 | 53 | 97 | 3.5 | 8.7 | 0.00 | 0.00 | 0.00 | 76 | 1026.4 |
| 20260503190536 | 54 | 85 | 3.5 | 8.7 | 0.00 | 0.00 | 0.00 | 76 | 1026.4 |
| 20260503190049 | 54 | 92 | 2.6 | 8.7 | 0.00 | 0.00 | 0.00 | 76 | 1026.5 |
| 20260503185535 | 54 | 104 | 3.5 | 8.7 | 0.00 | 0.00 | 0.00 | 76 | 1026.4 |
| 20260503185037 | 54 | 92 | 3.5 | 8.7 | 0.00 | 0.00 | 0.00 | 76 | 1026.4 |
| 20260503184558 | 54 | 103 | 4.3 | 8.7 | 0.00 | 0.00 | 0.00 | 76 | 1026.3 |
| 20260503184036 | 54 | 110 | 4.3 | 8.7 | 0.00 | 0.00 | 0.00 | 76 | 1026.3 |
| 20260503183536 | 54 | 85 | 3.5 | 8.7 | 0.00 | 0.00 | 0.00 | 76 | 1026.2 |
| 20260503183052 | 54 | 85 | 3.5 | 7.0 | 0.00 | 0.00 | 0.00 | 76 | 1026.4 |
| 20260503182538 | 54 | 82 | 3.5 | 7.0 | 0.00 | 0.00 | 0.00 | 76 | 1026.4 |
| 20260503182035 | 54 | 64 | 3.5 | 7.0 | 0.00 | 0.00 | 0.00 | 76 | 1026.3 |
| 20260503181559 | 54 | 83 | 2.6 | 7.0 | 0.00 | 0.00 | 0.00 | 76 | 1026.5 |
| 20260503181036 | 54 | 135 | 3.5 | 7.0 | 0.00 | 0.00 | 0.00 | 76 | 1026.4 |
| 20260503180536 | 54 | 85 | 2.6 | 7.0 | 0.00 | 0.00 | 0.00 | 76 | 1026.6 |
| 20260503180050 | 54 | 90 | 2.6 | 7.0 | 0.00 | 0.00 | 0.00 | 76 | 1026.6 |
| 20260503175536 | 54 | 72 | 1.7 | 5.2 | 0.00 | 0.00 | 0.00 | 76 | 1026.6 |
| 20260503175035 | 54 | 121 | 0.0 | 5.2 | 0.00 | 0.00 | 0.00 | 76 | 1026.7 |
| 20260503174555 | 54 | 85 | 0.9 | 3.5 | 0.00 | 0.00 | 0.00 | 75 | 1026.8 |
| 20260503174035 | 54 | 78 | 0.0 | 4.3 | 0.00 | 0.00 | 0.00 | 75 | 1026.7 |
| 20260503173535 | 54 | 0 | 0.0 | 4.3 | 0.00 | 0.00 | 0.00 | 74 | 1026.7 |
| 20260503173055 | 54 | 96 | 0.0 | 3.5 | 0.00 | 0.00 | 0.00 | 75 | 1026.6 |
| 20260503172535 | 55 | 0 | 0.0 | 5.2 | 0.00 | 0.00 | 0.00 | 74 | 1026.7 |
| 20260503172034 | 55 | 122 | 0.0 | 5.2 | 0.00 | 0.00 | 0.00 | 74 | 1026.6 |
| 20260503171540 | 55 | 137 | 0.9 | 5.2 | 0.00 | 0.00 | 0.00 | 75 | 1026.5 |
| 20260503171036 | 55 | 152 | 1.7 | 5.2 | 0.00 | 0.00 | 0.00 | 74 | 1026.7 |
| 20260503170535 | 55 | 175 | 0.9 | 3.5 | 0.00 | 0.00 | 0.00 | 74 | 1026.7 |
| 20260503150535 | 56 | 86 | 3.5 | 11.3 | 0.00 | 0.00 | 0.00 | 73 | 1026.0 |
| 20260503131034 | 56 | 140 | 0.0 | 1.7 | 0.00 | 0.00 | 0.00 | 72 | 1026.2 |
| 20260503130535 | 56 | 0 | 0.0 | 2.6 | 0.00 | 0.00 | 0.00 | 72 | 1026.2 |
| 20260503110535 | 56 | 0 | 0.0 | 0.9 | 0.00 | 0.00 | 0.00 | 77 | 1025.7 |
| 20260503081546 | 66 | 164 | 0.9 | 6.1 | 0.00 | 0.00 | 0.00 | 59 | 1024.5 |
| 20260503081035 | 66 | 0 | 0.9 | 6.1 | 0.00 | 0.00 | 0.00 | 59 | 1024.5 |
| 20260503080536 | 66 | 0 | 0.9 | 7.8 | 0.00 | 0.00 | 0.00 | 59 | 1024.3 |
| 20260503072537 | 67 | 0 | 0.9 | 6.1 | 0.00 | 0.00 | 0.00 | 58 | 1024.3 |
| 20260503072035 | 66 | 70 | 2.6 | 6.1 | 0.00 | 0.00 | 0.00 | 59 | 1024.4 |
| 20260503071545 | 67 | 241 | 0.0 | 7.8 | 0.00 | 0.00 | 0.00 | 57 | 1024.5 |
| 20260503071038 | 67 | 61 | 0.9 | 7.8 | 0.00 | 0.00 | 0.00 | 58 | 1024.5 |
| 20260503070534 | 67 | 47 | 1.7 | 6.1 | 0.00 | 0.00 | 0.00 | 58 | 1024.4 |
| 20260503055042 | 64 | 0 | 4.3 | 12.2 | 0.00 | 0.00 | 0.00 | 64 | 1024.8 |
| 20260503054542 | 65 | 72 | 1.7 | 9.6 | 0.00 | 0.00 | 0.00 | 63 | 1024.7 |
| 20260503054035 | 65 | 37 | 1.7 | 9.6 | 0.00 | 0.00 | 0.00 | 63 | 1024.9 |
| 20260503053535 | 65 | 60 | 2.6 | 9.6 | 0.00 | 0.00 | 0.00 | 62 | 1024.8 |
| 20260503053042 | 65 | 151 | 2.6 | 7.8 | 0.00 | 0.00 | 0.00 | 63 | 1024.8 |
| 20260503052536 | 66 | 110 | 1.7 | 7.8 | 0.00 | 0.00 | 0.00 | 64 | 1024.8 |
| 20260503052036 | 66 | 86 | 2.6 | 9.6 | 0.00 | 0.00 | 0.00 | 63 | 1024.9 |
| 20260503051540 | 66 | 81 | 0.9 | 9.6 | 0.00 | 0.00 | 0.00 | 64 | 1024.9 |
| 20260503051037 | 64 | 97 | 3.5 | 9.6 | 0.00 | 0.00 | 0.00 | 66 | 1025.1 |
| 20260503050535 | 64 | 59 | 1.7 | 8.7 | 0.00 | 0.00 | 0.00 | 66 | 1025.0 |
| 20260503050040 | 64 | 52 | 0.9 | 7.0 | 0.00 | 0.00 | 0.00 | 66 | 1025.3 |
| 20260503045537 | 65 | 170 | 1.7 | 7.0 | 0.00 | 0.00 | 0.00 | 66 | 1025.3 |
| 20260503045035 | 64 | 0 | 1.7 | 7.0 | 0.00 | 0.00 | 0.00 | 67 | 1025.4 |
| 20260503044535 | 63 | 113 | 0.9 | 7.8 | 0.00 | 0.00 | 0.00 | 68 | 1025.5 |
| 20260503044034 | 64 | 93 | 2.6 | 9.6 | 0.00 | 0.00 | 0.00 | 69 | 1025.6 |
| 20260503043534 | 63 | 56 | 2.6 | 9.6 | 0.00 | 0.00 | 0.00 | 69 | 1025.7 |
| 20260503043042 | 63 | 185 | 1.7 | 8.7 | 0.00 | 0.00 | 0.00 | 70 | 1025.8 |
| 20260503042536 | 62 | 43 | 1.7 | 8.7 | 0.00 | 0.00 | 0.00 | 70 | 1026.0 |
| 20260503042035 | 62 | 86 | 3.5 | 11.3 | 0.00 | 0.00 | 0.00 | 70 | 1026.0 |
| 20260503041539 | 62 | 95 | 3.5 | 12.2 | 0.00 | 0.00 | 0.00 | 71 | 1026.1 |
| 20260503041035 | 61 | 74 | 4.3 | 12.2 | 0.00 | 0.00 | 0.00 | 71 | 1026.0 |
| 20260503040534 | 61 | 123 | 3.5 | 12.2 | 0.00 | 0.00 | 0.00 | 72 | 1026.1 |
| 20260503040040 | 60 | 0 | 1.7 | 12.2 | 0.00 | 0.00 | 0.00 | 75 | 1026.2 |
| 20260503035534 | 60 | 113 | 3.5 | 12.2 | 0.00 | 0.00 | 0.00 | 73 | 1026.1 |
| 20260503035034 | 60 | 37 | 3.5 | 11.3 | 0.00 | 0.00 | 0.00 | 74 | 1026.1 |
| 20260503034538 | 60 | 56 | 2.6 | 11.3 | 0.00 | 0.00 | 0.00 | 74 | 1026.2 |
| 20260503034034 | 60 | 69 | 3.5 | 12.2 | 0.00 | 0.00 | 0.00 | 74 | 1026.2 |
| 20260503033534 | 59 | 85 | 4.3 | 12.2 | 0.00 | 0.00 | 0.00 | 75 | 1026.2 |
| 20260503033046 | 59 | 140 | 3.5 | 10.4 | 0.00 | 0.00 | 0.00 | 76 | 1026.3 |
| 20260503032535 | 58 | 112 | 2.6 | 13.0 | 0.00 | 0.00 | 0.00 | 77 | 1026.5 |
| 20260503032037 | 57 | 120 | 5.2 | 13.0 | 0.00 | 0.00 | 0.00 | 79 | 1026.5 |
| 20260503031542 | 57 | 93 | 4.3 | 11.3 | 0.00 | 0.00 | 0.00 | 79 | 1026.7 |
| 20260503031035 | 56 | 73 | 5.2 | 14.8 | 0.00 | 0.00 | 0.00 | 80 | 1026.7 |
| 20260503030535 | 55 | 86 | 5.2 | 14.8 | 0.00 | 0.00 | 0.00 | 80 | 1026.7 |
| 20260503030059 | 55 | 70 | 7.0 | 14.8 | 0.00 | 0.00 | 0.00 | 80 | 1026.7 |
| 20260503025534 | 55 | 70 | 5.2 | 13.0 | 0.00 | 0.00 | 0.00 | 80 | 1026.6 |
| 20260503025034 | 54 | 70 | 6.1 | 13.0 | 0.00 | 0.00 | 0.00 | 82 | 1026.8 |
| 20260503024541 | 54 | 91 | 6.1 | 12.2 | 0.00 | 0.00 | 0.00 | 81 | 1026.8 |
| 20260503024034 | 54 | 72 | 4.3 | 12.2 | 0.00 | 0.00 | 0.00 | 82 | 1026.9 |
| 20260503023534 | 53 | 93 | 6.1 | 14.8 | 0.00 | 0.00 | 0.00 | 82 | 1026.9 |
| 20260503023039 | 53 | 62 | 5.2 | 14.8 | 0.00 | 0.00 | 0.00 | 81 | 1026.8 |
| 20260503022535 | 54 | 79 | 3.5 | 12.2 | 0.00 | 0.00 | 0.00 | 82 | 1027.0 |
| 20260503022035 | 54 | 76 | 5.2 | 12.2 | 0.00 | 0.00 | 0.00 | 81 | 1026.8 |
| 20260503021543 | 53 | 95 | 5.2 | 12.2 | 0.00 | 0.00 | 0.00 | 81 | 1026.8 |
| 20260503021035 | 53 | 121 | 5.2 | 13.9 | 0.00 | 0.00 | 0.00 | 82 | 1026.7 |
| 20260503020535 | 52 | 73 | 7.0 | 13.9 | 0.00 | 0.00 | 0.00 | 81 | 1026.9 |
| 20260503020043 | 53 | 81 | 6.1 | 12.2 | 0.00 | 0.00 | 0.00 | 81 | 1026.9 |
| 20260503015535 | 53 | 56 | 5.2 | 12.2 | 0.00 | 0.00 | 0.00 | 80 | 1026.8 |
| 20260503015034 | 54 | 64 | 6.1 | 13.0 | 0.00 | 0.00 | 0.00 | 80 | 1026.8 |
| 20260503014556 | 54 | 164 | 4.3 | 13.0 | 0.00 | 0.00 | 0.00 | 80 | 1026.7 |
| 20260503014034 | 53 | 91 | 7.0 | 13.0 | 0.00 | 0.00 | 0.00 | 80 | 1026.7 |
| 20260503013535 | 53 | 55 | 5.2 | 15.6 | 0.00 | 0.00 | 0.00 | 81 | 1026.6 |
| 20260503013039 | 53 | 99 | 6.1 | 15.6 | 0.00 | 0.00 | 0.00 | 80 | 1026.8 |
| 20260503012535 | 54 | 61 | 4.3 | 12.2 | 0.00 | 0.00 | 0.00 | 80 | 1026.8 |
| 20260503012034 | 54 | 81 | 5.2 | 10.4 | 0.00 | 0.00 | 0.00 | 81 | 1026.8 |
| 20260503011542 | 54 | 93 | 4.3 | 11.3 | 0.00 | 0.00 | 0.00 | 80 | 1026.8 |
| 20260503011036 | 54 | 101 | 4.3 | 11.3 | 0.00 | 0.00 | 0.00 | 79 | 1026.7 |
| 20260503010536 | 54 | 141 | 4.3 | 10.4 | 0.00 | 0.00 | 0.00 | 79 | 1026.7 |
| 20260503010037 | 55 | 85 | 3.5 | 7.8 | 0.00 | 0.00 | 0.00 | 79 | 1026.7 |
| 20260503005538 | 55 | 73 | 3.5 | 7.8 | 0.00 | 0.00 | 0.00 | 80 | 1026.6 |
| 20260503005035 | 55 | 97 | 2.6 | 10.4 | 0.00 | 0.00 | 0.00 | 80 | 1026.6 |
| 20260503004539 | 56 | 71 | 2.6 | 10.4 | 0.00 | 0.00 | 0.00 | 80 | 1026.6 |
| 20260503004034 | 55 | 127 | 3.5 | 10.4 | 0.00 | 0.00 | 0.00 | 80 | 1026.6 |
| 20260503003534 | 55 | 90 | 2.6 | 7.8 | 0.00 | 0.00 | 0.00 | 81 | 1026.5 |
| 20260503003059 | 55 | 153 | 1.7 | 7.8 | 0.00 | 0.00 | 0.00 | 82 | 1026.6 |
| 20260503002536 | 54 | 77 | 2.6 | 7.8 | 0.00 | 0.00 | 0.00 | 82 | 1026.7 |
| 20260503002036 | 54 | 123 | 2.6 | 8.7 | 0.00 | 0.00 | 0.00 | 83 | 1026.6 |
| 20260503001556 | 53 | 106 | 3.5 | 8.7 | 0.00 | 0.00 | 0.00 | 84 | 1026.5 |
| 20260503001039 | 53 | 101 | 2.6 | 7.8 | 0.00 | 0.00 | 0.00 | 84 | 1026.5 |
| 20260503000534 | 53 | 97 | 1.7 | 6.1 | 0.00 | 0.00 | 0.00 | 84 | 1026.4 |
| 20260503000056 | 52 | 116 | 1.7 | 6.1 | 0.00 | 0.00 | 0.00 | 84 | 1026.4 |
| 20260502235535 | 52 | 60 | 0.9 | 6.1 | 0.00 | 0.00 | 0.00 | 84 | 1026.4 |
| 20260502235035 | 52 | 124 | 1.7 | 5.2 | 0.00 | 0.00 | 0.00 | 84 | 1026.4 |
| 20260502234542 | 52 | 79 | 0.9 | 5.2 | 0.00 | 0.00 | 0.00 | 84 | 1026.2 |
| 20260502234035 | 52 | 79 | 0.9 | 3.5 | 0.00 | 0.00 | 0.00 | 84 | 1026.1 |
| 20260502233534 | 52 | 120 | 1.7 | 3.5 | 0.00 | 0.00 | 0.00 | 83 | 1026.1 |
| 20260502233042 | 52 | 130 | 0.9 | 6.1 | 0.00 | 0.00 | 0.00 | 83 | 1026.0 |
| 20260502232534 | 52 | 104 | 1.7 | 7.0 | 0.00 | 0.00 | 0.00 | 83 | 1026.1 |
| 20260502232034 | 51 | 111 | 1.7 | 7.0 | 0.00 | 0.00 | 0.00 | 83 | 1025.9 |
| 20260502231539 | 51 | 110 | 1.7 | 4.3 | 0.00 | 0.00 | 0.00 | 83 | 1025.9 |
| 20260502231034 | 51 | 115 | 1.7 | 4.3 | 0.00 | 0.00 | 0.00 | 83 | 1025.8 |
| 20260502230535 | 51 | 131 | 1.7 | 3.5 | 0.00 | 0.00 | 0.00 | 83 | 1025.8 |
| 20260502230041 | 51 | 133 | 0.9 | 3.5 | 0.00 | 0.00 | 0.00 | 83 | 1025.7 |
| 20260502225534 | 51 | 106 | 0.9 | 2.6 | 0.00 | 0.00 | 0.00 | 83 | 1025.6 |
| 20260502225034 | 51 | 116 | 0.9 | 3.5 | 0.00 | 0.00 | 0.00 | 83 | 1025.6 |
| 20260502224538 | 51 | 125 | 0.9 | 3.5 | 0.00 | 0.00 | 0.00 | 83 | 1025.5 |
| 20260502224035 | 51 | 120 | 0.9 | 3.5 | 0.00 | 0.00 | 0.00 | 84 | 1025.5 |
| 20260502223538 | 51 | 0 | 0.0 | 2.6 | 0.00 | 0.00 | 0.00 | 84 | 1025.5 |
| 20260502223042 | 50 | 0 | 0.0 | 3.5 | 0.00 | 0.00 | 0.00 | 84 | 1025.5 |
| 20260502222534 | 50 | 0 | 0.9 | 3.5 | 0.00 | 0.00 | 0.00 | 84 | 1025.5 |
| 20260502222037 | 50 | 0 | 0.0 | 2.6 | 0.00 | 0.00 | 0.00 | 83 | 1025.4 |
| 20260502221539 | 50 | 0 | 0.0 | 2.6 | 0.00 | 0.00 | 0.00 | 83 | 1025.2 |
| 20260502221037 | 51 | 0 | 0.0 | 1.7 | 0.00 | 0.00 | 0.00 | 83 | 1025.4 |
| 20260502220535 | 51 | 120 | 0.0 | 1.7 | 0.00 | 0.00 | 0.00 | 83 | 1025.4 |
| 20260502220041 | 51 | 120 | 0.0 | 2.6 | 0.00 | 0.00 | 0.00 | 83 | 1025.2 |
| 20260502215535 | 51 | 0 | 0.9 | 2.6 | 0.00 | 0.00 | 0.00 | 83 | 1025.2 |
| 20260502215038 | 51 | 139 | 0.0 | 1.7 | 0.00 | 0.00 | 0.00 | 83 | 1025.2 |
| 20260502214553 | 51 | 0 | 0.0 | 0.0 | 0.00 | 0.00 | 0.00 | 83 | 1025.3 |
| 20260502214039 | 51 | 0 | 0.0 | 0.9 | 0.00 | 0.00 | 0.00 | 83 | 1025.3 |
| 20260502213534 | 51 | 0 | 0.0 | 2.6 | 0.00 | 0.00 | 0.00 | 83 | 1025.2 |
| 20260502213045 | 51 | 0 | 0.9 | 2.6 | 0.00 | 0.00 | 0.00 | 83 | 1025.2 |
| 20260502212535 | 51 | 129 | 0.9 | 2.6 | 0.00 | 0.00 | 0.00 | 83 | 1025.1 |
| 20260502212035 | 51 | 126 | 0.9 | 2.6 | 0.00 | 0.00 | 0.00 | 83 | 1025.1 |
| 20260502211545 | 51 | 128 | 0.9 | 2.6 | 0.00 | 0.00 | 0.00 | 83 | 1025.1 |
| 20260502211034 | 51 | 133 | 0.9 | 2.6 | 0.00 | 0.00 | 0.00 | 83 | 1024.9 |
| 20260502210534 | 51 | 129 | 0.9 | 2.6 | 0.00 | 0.00 | 0.00 | 83 | 1025.0 |
| 20260502210043 | 51 | 126 | 1.7 | 3.5 | 0.00 | 0.00 | 0.00 | 83 | 1024.9 |
| 20260502205535 | 51 | 125 | 1.7 | 3.5 | 0.00 | 0.00 | 0.00 | 83 | 1024.9 |
| 20260502205035 | 51 | 101 | 0.9 | 3.5 | 0.00 | 0.00 | 0.00 | 82 | 1024.9 |
| 20260502204539 | 51 | 117 | 0.9 | 3.5 | 0.00 | 0.00 | 0.00 | 82 | 1024.9 |
| 20260502204035 | 51 | 131 | 0.9 | 2.6 | 0.00 | 0.00 | 0.00 | 82 | 1024.9 |
| 20260502203535 | 51 | 125 | 0.9 | 2.6 | 0.00 | 0.00 | 0.00 | 82 | 1024.8 |
| 20260502203059 | 51 | 124 | 0.9 | 2.6 | 0.00 | 0.00 | 0.00 | 82 | 1024.9 |
| 20260502202540 | 51 | 122 | 0.9 | 2.6 | 0.00 | 0.00 | 0.00 | 83 | 1024.9 |
| 20260502202036 | 51 | 124 | 0.0 | 0.0 | 0.00 | 0.00 | 0.00 | 83 | 1024.9 |
| 20260502201545 | 51 | 0 | 0.0 | 2.6 | 0.00 | 0.00 | 0.00 | 83 | 1024.8 |
| 20260502201040 | 51 | 0 | 0.0 | 2.6 | 0.00 | 0.00 | 0.00 | 83 | 1024.8 |
| 20260502200538 | 51 | 120 | 0.9 | 3.5 | 0.00 | 0.00 | 0.00 | 83 | 1024.9 |
| 20260502200044 | 51 | 101 | 0.9 | 3.5 | 0.00 | 0.00 | 0.00 | 83 | 1025.0 |
| 20260502195535 | 50 | 141 | 0.0 | 2.6 | 0.00 | 0.00 | 0.00 | 83 | 1024.9 |
| 20260502195035 | 50 | 0 | 0.0 | 0.0 | 0.00 | 0.00 | 0.00 | 83 | 1024.9 |
| 20260502194542 | 50 | 0 | 0.0 | 2.6 | 0.00 | 0.00 | 0.00 | 82 | 1024.9 |
| 20260502194036 | 51 | 0 | 0.0 | 2.6 | 0.00 | 0.00 | 0.00 | 82 | 1024.9 |
| 20260502193536 | 51 | 116 | 0.9 | 1.7 | 0.00 | 0.00 | 0.00 | 82 | 1024.9 |
| 20260502193042 | 51 | 0 | 0.0 | 0.0 | 0.00 | 0.00 | 0.00 | 82 | 1024.9 |